Hourly Data Report for September 11, 2017

All times are specified in Local Standard Time (LST). Add 1 hour to adjust for Daylight Saving Time where and when it is observed.

ALGONQUIN PARK EAST GATE
ONTARIO

45°32'00.000" N
78°16'00.000" W
397.00 m
6080192
71581
TNK

Download Data

Hourly Data (September 2017)
Hourly Data Report for September 11, 2017
Temp Definition
°C
Dew Point Temp Definition
°C
Rel Hum Definition
%
Wind Dir Definition
10's deg

Wind Spd Definition
km/h
Visibility Definition
km
Stn Press Definition
kPa
Hmdx Definition


Wind Chill Definition


Weather Definition


TIME
00:00 5.2 3.9 91 LegendMM LegendMM   98.25     LegendNANA
01:00 4.3 3.1 92 LegendMM LegendMM   98.21     LegendNANA
02:00 4.1 3.0 92 LegendMM LegendMM   98.19     LegendNANA
03:00 3.6 2.5 93 LegendMM LegendMM   98.14     LegendNANA
04:00 3.7 2.8 94 LegendMM LegendMM   98.12     LegendNANA
05:00 3.6 2.8 95 LegendMM LegendMM   98.06     LegendNANA
06:00 3.1 2.4 95 LegendMM LegendMM   98.07     LegendNANA
07:00 4.4 3.6 95 LegendMM LegendMM   98.09     LegendNANA
08:00 7.6 6.5 93 LegendMM LegendMM   98.12     LegendNANA
09:00 12.9 10.2 83 LegendMM LegendMM   98.10     LegendNANA
10:00 16.6 9.6 63 LegendMM LegendMM   98.02     LegendNANA
11:00 18.9 9.0 52 LegendMM LegendMM   97.95     LegendNANA
12:00 20.3 7.8 44 LegendMM LegendMM   97.84     LegendNANA
13:00 20.3 5.9 39 LegendMM LegendMM   97.78     LegendNANA
14:00 21.0 6.7 40 LegendMM LegendMM   97.70     LegendNANA
15:00 20.9 7.2 41 LegendMM LegendMM   97.66     LegendNANA
16:00 20.4 7.7 44 LegendMM LegendMM   97.59     LegendNANA
17:00 19.3 6.8 44 LegendMM LegendMM   97.52     LegendNANA
18:00 15.0 9.4 69 LegendMM LegendMM   97.50     LegendNANA
19:00 12.2 8.7 80 LegendMM LegendMM   97.46     LegendNANA
20:00 10.2 8.0 86 LegendMM LegendMM   97.44     LegendNANA
21:00 8.7 7.0 89 LegendMM LegendMM   97.38     LegendNANA
22:00 7.9 6.3 89 LegendMM LegendMM   97.33     LegendNANA
23:00 7.0 5.5 91 LegendMM LegendMM   97.33     LegendNANA

Notes on Data Quality.

Legend

  • E = Estimated
  • M = Missing
  • NA = Not Available
  • ‡ = Partner data that is not subject to review by the National Climate Archives
Date modified: